TimeEST,TemperatureF,Dew PointF,Humidity,Sea Level PressureIn,VisibilityMPH,Wind Direction,Wind SpeedMPH,Gust SpeedMPH,PrecipitationIn,Events,Conditions,WindDirDegrees,DateUTC
12:53 AM,37.0,28.0,70,29.80,10.0,West,6.9,-,N/A,,Clear,260,2013-02-12 05:53:00
1:53 AM,37.9,27.0,65,29.82,10.0,WNW,5.8,-,N/A,,Mostly Cloudy,290,2013-02-12 06:53:00
2:53 AM,39.0,26.1,60,29.83,10.0,WNW,11.5,-,N/A,,Mostly Cloudy,290,2013-02-12 07:53:00
3:53 AM,39.0,26.1,60,29.85,10.0,WNW,15.0,-,N/A,,Overcast,300,2013-02-12 08:53:00
4:53 AM,39.0,25.0,57,29.86,10.0,WNW,12.7,-,N/A,,Overcast,300,2013-02-12 09:53:00
5:53 AM,39.0,25.0,57,29.86,10.0,WNW,16.1,-,N/A,,Overcast,290,2013-02-12 10:53:00
7:53 AM,39.0,25.0,57,29.92,10.0,WNW,13.8,-,N/A,,Overcast,290,2013-02-12 12:53:00
8:53 AM,39.9,25.0,55,29.94,10.0,WNW,12.7,-,N/A,,Overcast,300,2013-02-12 13:53:00
9:53 AM,42.1,25.0,51,29.96,10.0,WNW,17.3,-,N/A,,Mostly Cloudy,300,2013-02-12 14:53:00
10:53 AM,39.9,25.0,55,29.98,10.0,WNW,21.9,28.8,N/A,,Mostly Cloudy,300,2013-02-12 15:53:00
11:53 AM,42.1,25.0,51,29.99,10.0,WNW,16.1,25.3,N/A,,Partly Cloudy,300,2013-02-12 16:53:00
12:53 PM,43.0,25.0,49,29.98,10.0,WNW,16.1,21.9,N/A,,Mostly Cloudy,300,2013-02-12 17:53:00
1:53 PM,43.0,24.1,47,29.96,10.0,WNW,19.6,29.9,N/A,,Clear,290,2013-02-12 18:53:00
2:53 PM,43.0,25.0,49,29.94,10.0,NW,16.1,26.5,N/A,,Clear,310,2013-02-12 19:53:00
3:53 PM,42.1,23.0,47,29.90,10.0,NNW,9.2,-,N/A,,Clear,330,2013-02-12 20:53:00
4:53 PM,39.9,23.0,51,29.98,10.0,WNW,9.2,-,N/A,,Clear,300,2013-02-12 21:53:00
5:53 PM,37.0,21.9,54,29.98,10.0,NNW,5.8,-,N/A,,Clear,330,2013-02-12 22:53:00
6:53 PM,34.0,23.0,64,29.99,10.0,North,5.8,-,N/A,,Clear,360,2013-02-12 23:53:00
7:53 PM,32.0,23.0,69,29.98,10.0,NNW,3.5,-,N/A,,Clear,340,2013-02-13 00:53:00
8:53 PM,34.0,21.9,61,29.95,10.0,Calm,Calm,-,N/A,,Clear,0,2013-02-13 01:53:00
9:53 PM,32.0,21.9,66,29.96,10.0,Calm,Calm,-,N/A,,Clear,0,2013-02-13 02:53:00
10:53 PM,28.9,21.9,75,29.97,8.0,Calm,Calm,-,N/A,,Clear,0,2013-02-13 03:53:00
11:53 PM,30.0,21.9,72,29.97,8.0,Calm,Calm,-,N/A,,Clear,0,2013-02-13 04:53:00